Вернуться в каталог

STARLINK-32430

АктивенСвязьVLEO
NORAD 62207·PAYLOAD·🇺🇸 United States

Запущен Dec 4, 2024 с Cape Canaveral Space Force Station

Loading…

Ближайшие Пролёты (ближайшие 24 часа)

TLE

СвежийSource: CelesTrak SupGP

Эпоха: Sep 14, 2026, 21:32 UTC

1 62207C 24229R   26257.89770833  .00016104  00000+0  58338-3 0  2571
2 62207  42.9999 278.8833 0001522 263.9600 191.6082 15.27565351    14

Отслеживайте STARLINK-32430 в реальном времени с AllMySat

Download on the App Store